"Pseudo-MPEC" for oDM1186

Created 2026 Mar 18 3:35:33 UT using Find_Orb

Click here for an explanation of pseudo-MPECs

 
 Astrometry: 
     oDM1186* C2026 02 23.72104109 57 00.547+08 21 51.39   ~2Q3o 22.38wWNEOCPO18
     oDM1186  C2026 02 23.73290509 57 00.422+08 21 52.81   ~2Q3o 22.49wWNEOCPO18
     oDM1186  C2026 02 23.73504609 57 00.384+08 21 52.95   ~2Q3o 22.50wWNEOCPO18

Station data:
(O18) WFST, Lenghu  (N38.607601 E93.895220).  Observers K. Yan, Z. Q. Li, J.
   Z. Zhu, N. Jiang, Z. Y. Liu. Measurers B. Li, H. B. Zhao, Z. J. Xu, G. T.
   Zhaori. 2.5-m f/2.48 reflector + CCD.

Orbital elements:  oDM1186
   Perihelion 2032 Jan 24.030965 +/- 2065 TT =  0:44:35.3 (JD 2463255.530965)
Epoch 2026 Feb 24.0 TT = JDT 2461095.5                           AutoNEOCP
M 351.777415484 +/- 13              (J2000 ecliptic)
n   0.003806697 +/-                 Peri.   48.503396 +/- 60
a  40.62285755 +/-                  Node   153.013216 +/- 40
e   0.68827847 +/- 0.245            Incl.   41.276373 +/- 34
P 258.91410                H 10.55  G  0.15   U 10.6  SR
q 12.66301905 +/- 6.17    Q 68.58269605 +/- 468
From 3 observations 2026 Feb. 23 (20.2 min); mean residual 0".07
Residuals in arcseconds: 
260223 O18  .02-  .01-    260223 O18  .12+  .05+    260223 O18  .09-  .05-    

Ephemerides (geocentric):
Date (UTC) HH   RA             Dec           delta  r     elong  mag " sig PA
---- --------  ------------   ------------  ------ ------ -----  --- --------
2026 03 18 04  09 53 10.508   +09 04 05.69  14.307 15.176 149.9 22.5 323'  92
2026 03 18 05  09 53 10.134   +09 04 10.22  14.307 15.176 149.9 22.5 326'  92
2026 03 18 06  09 53 09.759   +09 04 14.74  14.307 15.176 149.8 22.5 329'  92
2026 03 18 07  09 53 09.385   +09 04 19.26  14.308 15.176 149.8 22.5 332'  92
2026 03 18 08  09 53 09.011   +09 04 23.78  14.308 15.176 149.8 22.5 336'  92
2026 03 18 09  09 53 08.638   +09 04 28.30  14.308 15.176 149.7 22.5 339'  92
2026 03 18 10  09 53 08.264   +09 04 32.82  14.308 15.176 149.7 22.5 342'  92
2026 03 18 11  09 53 07.891   +09 04 37.34  14.309 15.176 149.6 22.5 346'  92
2026 03 18 12  09 53 07.519   +09 04 41.85  14.309 15.176 149.6 22.5 349'  92
2026 03 18 13  09 53 07.146   +09 04 46.37  14.309 15.175 149.5 22.5 353'  92
2026 03 18 14  09 53 06.774   +09 04 50.88  14.309 15.175 149.5 22.5 356'  92
2026 03 18 15  09 53 06.402   +09 04 55.39  14.310 15.175 149.5 22.5 360'  92
2026 03 18 16  09 53 06.030   +09 04 59.90  14.310 15.175 149.4 22.5 364'  92
2026 03 18 17  09 53 05.658   +09 05 04.41  14.310 15.175 149.4 22.5 367'  92
2026 03 18 18  09 53 05.287   +09 05 08.92  14.310 15.175 149.3 22.5 371'  92
2026 03 18 19  09 53 04.916   +09 05 13.43  14.311 15.175 149.3 22.5 375'  92
2026 03 18 20  09 53 04.545   +09 05 17.94  14.311 15.175 149.2 22.5 379'  92
2026 03 18 21  09 53 04.175   +09 05 22.45  14.311 15.175 149.2 22.5 383'  92
2026 03 18 22  09 53 03.805   +09 05 26.95  14.311 15.175 149.2 22.5 387'  92
2026 03 18 23  09 53 03.435   +09 05 31.45  14.312 15.175 149.1 22.5 391'  92
2026 03 19 00  09 53 03.065   +09 05 35.96  14.312 15.175 149.1 22.5 396'  92
2026 03 19 01  09 53 02.696   +09 05 40.46  14.312 15.174 149.0 22.5 400'  92
2026 03 19 02  09 53 02.326   +09 05 44.96  14.312 15.174 149.0 22.5 404'  92
2026 03 19 03  09 53 01.958   +09 05 49.46  14.313 15.174 148.9 22.5 409'  92
2026 03 19 04  09 53 01.589   +09 05 53.96  14.313 15.174 148.9 22.5 413'  92
2026 03 19 05  09 53 01.221   +09 05 58.45  14.313 15.174 148.9 22.5 418'  92
2026 03 19 06  09 53 00.853   +09 06 02.95  14.314 15.174 148.8 22.5 422'  92
2026 03 19 07  09 53 00.485   +09 06 07.44  14.314 15.174 148.8 22.5 427'  92
2026 03 19 08  09 53 00.117   +09 06 11.94  14.314 15.174 148.7 22.5 432'  92
2026 03 19 09  09 52 59.750   +09 06 16.43  14.314 15.174 148.7 22.5 437'  92
2026 03 19 10  09 52 59.383   +09 06 20.92  14.315 15.174 148.6 22.5 442'  92
2026 03 19 11  09 52 59.016   +09 06 25.41  14.315 15.174 148.6 22.5 447'  92
2026 03 19 12  09 52 58.650   +09 06 29.90  14.315 15.173 148.6 22.5 452'  92
2026 03 19 13  09 52 58.283   +09 06 34.39  14.315 15.173 148.5 22.5 458'  92
2026 03 19 14  09 52 57.917   +09 06 38.88  14.316 15.173 148.5 22.5 463'  92
2026 03 19 15  09 52 57.552   +09 06 43.36  14.316 15.173 148.4 22.5 468'  92
2026 03 19 16  09 52 57.186   +09 06 47.85  14.316 15.173 148.4 22.5 474'  92
2026 03 19 17  09 52 56.821   +09 06 52.33  14.317 15.173 148.3 22.5 480'  92
2026 03 19 18  09 52 56.456   +09 06 56.81  14.317 15.173 148.3 22.5 486'  92
2026 03 19 19  09 52 56.092   +09 07 01.29  14.317 15.173 148.3 22.5 491'  92
2026 03 19 20  09 52 55.727   +09 07 05.77  14.317 15.173 148.2 22.5 498'  92
2026 03 19 21  09 52 55.363   +09 07 10.25  14.318 15.173 148.2 22.5 504'  92
2026 03 19 22  09 52 54.999   +09 07 14.73  14.318 15.173 148.1 22.5 510'  92
2026 03 19 23  09 52 54.636   +09 07 19.21  14.318 15.173 148.1 22.5 516'  92
2026 03 20 00  09 52 54.273   +09 07 23.68  14.318 15.172 148.0 22.5 523'  92
2026 03 20 01  09 52 53.910   +09 07 28.16  14.319 15.172 148.0 22.5 530'  92
2026 03 20 02  09 52 53.547   +09 07 32.63  14.319 15.172 148.0 22.5 536'  91
2026 03 20 03  09 52 53.185   +09 07 37.10  14.319 15.172 147.9 22.5 543'  91